STARLINK-31899 (59850 NORAD) Tracking and Keplerian Element Data

This shows tracking and keplerian element data for the satellite.

Feedback or suggestion? Click here.




ElementValue
Catalog59850
NameSTARLINK-31899
Epoch Orbit370
Epoch Day160.16667824
Epoch Year2024
RAAN318.6111
Inclination43.0008
Eccentricity0.000185
Argument of Perigee285.0323
Mean Anonmoly87.5737
Mean Motion15.66653777
Decay Rate-0.01739534
L11 59850U 24097R 24160.16667824 -.01739534 00000+0 -18359-1 0 9992
L22 59850 43.0008 318.6111 0001850 285.0323 87.5737 15.66653777 3702



Live tracking and technical data element details for STARLINK-31899 (NORAD 59850). STARLINK-31899 can be tracked NOW for your location showing map with azimuth and elevation plus other details from your city location.







IsCatalogInMostPopularTable: catalog: 59850, numindb: 8
Update: records affected: 1



GetName: 59850 STARLINK-31899

Hit Count: updated at: Thu, 25 Jul 2024 00:02:19 GMT